Weather History for Dunkirk, NY

Change the Weather History Date:

Saturday, September 20, 2014

  Actual Average Record
Temperature  
Mean Temperature 69 °F -  
Max Temperature 78 °F 73 °F 87 °F (1946)
Min Temperature 61 °F 55 °F 36 °F (1929)
Cooling Degree Days 4    
Growing Degree Days 19 (Base 50)    
Moisture  
Dew Point 57 °F    
Average Humidity 67    
Maximum Humidity 75    
Minimum Humidity 52    
Precipitation  
Precipitation 0.00 in - - ()
Sea Level Pressure  
Sea Level Pressure 29.98 in    
Wind  
Wind Speed 20 mph (SSW)    
Max Wind Speed 23 mph    
Max Gust Speed 37 mph    
Visibility 10 miles    
Events      
Averages and records for this station are not official NWS values.
T = Trace of Precipitation, MM = Missing Value Source: NWS Daily Summary

Daily Weather History Graph

Daily Weather History Graph

Search for Another Location

Airport:

Trip Planner

Search our weather history database for the weather conditions in past years. The results will help you decide how hot, cold, wet, or windy it might be!

Date:

Astronomy

Sep. 20, 2014 Rise Set
Actual Time 7:02 AM EDT 7:17 PM EDT
Civil Twilight 6:34 AM EDT 7:46 PM EDT
Nautical Twilight 6:01 AM EDT 8:19 PM EDT
Astronomical Twilight 5:27 AM EDT 8:52 PM EDT
Moon 3:36 AM EDT (9/20) 5:23 PM EDT (9/20)
Length of Visible Light 13h 11m
Length of Day
12h 15m
Waning Crescent, 11% of the Moon is Illuminated
Sep 20
Waning Crescent
Sep 24
New
Oct 1
First Quarter
Oct 8
Full
Oct 15
Last Quarter

Hourly Weather History & Observations

Time (EDT) Temp. Dew Point Humidity Pressure Visibility Wind Dir Wind Speed Gust Speed Precip Events Conditions
12:53 AM 61.0 °F 52.0 °F 72% 30.08 in 10.0 mi South 21.9 mph 34.5 mph N/A   Clear
1:53 AM 62.1 °F 53.1 °F 72% 30.08 in 10.0 mi South 21.9 mph 34.5 mph N/A   Clear
2:53 AM 62.1 °F 53.1 °F 72% 30.07 in 10.0 mi South 20.7 mph 35.7 mph N/A   Scattered Clouds
3:53 AM 62.1 °F 54.0 °F 75% 30.05 in 10.0 mi SSW 20.7 mph 35.7 mph N/A   Scattered Clouds
4:53 AM 62.1 °F 54.0 °F 75% 30.05 in 10.0 mi SSW 13.8 mph 33.4 mph N/A   Mostly Cloudy
5:53 AM 63.0 °F 54.0 °F 72% 30.05 in 10.0 mi South 23.0 mph 36.8 mph N/A   Partly Cloudy
6:53 AM 62.1 °F 54.0 °F 75% 30.06 in 10.0 mi SSW 20.7 mph 27.6 mph N/A   Clear
7:53 AM 63.0 °F 55.0 °F 75% 30.08 in 10.0 mi SSW 18.4 mph 27.6 mph N/A   Clear
8:53 AM 64.9 °F 55.9 °F 73% 30.06 in 10.0 mi South 20.7 mph 28.8 mph N/A   Clear
9:53 AM 66.9 °F 57.0 °F 70% 30.05 in 10.0 mi SSW 20.7 mph 26.5 mph N/A   Clear
10:53 AM 70.0 °F 59.0 °F 68% 30.04 in 10.0 mi SSW 17.3 mph 27.6 mph N/A   Clear
11:53 AM 73.0 °F 60.1 °F 64% 30.02 in 10.0 mi SSW 11.5 mph 27.6 mph N/A   Scattered Clouds
12:53 PM 75.0 °F 60.1 °F 60% 29.99 in 10.0 mi SSW 17.3 mph 26.5 mph N/A   Mostly Cloudy
1:53 PM 75.9 °F 60.1 °F 58% 29.96 in 10.0 mi SSW 21.9 mph 28.8 mph N/A   Mostly Cloudy
2:53 PM 75.0 °F 57.9 °F 55% 29.93 in 10.0 mi SSW 18.4 mph 28.8 mph N/A   Partly Cloudy
3:53 PM 77.0 °F 57.9 °F 52% 29.91 in 10.0 mi SSW 20.7 mph 28.8 mph N/A   Clear
5:53 PM 75.9 °F 60.1 °F 58% 29.88 in 10.0 mi SSW 12.7 mph 26.5 mph N/A   Clear
6:53 PM 73.9 °F 60.1 °F 62% 29.86 in 10.0 mi SSW 12.7 mph 23.0 mph N/A   Clear
7:53 PM 72.0 °F 60.1 °F 66% 29.86 in 10.0 mi SSW 13.8 mph 25.3 mph N/A   Clear
8:53 PM 71.1 °F 60.1 °F 68% 29.85 in 10.0 mi South 17.3 mph 26.5 mph N/A   Clear
9:53 PM 71.1 °F 60.1 °F 68% 29.86 in 10.0 mi South 20.7 mph 33.4 mph N/A   Clear
10:53 PM 71.1 °F 60.1 °F 68% 29.85 in 10.0 mi South 20.7 mph 26.5 mph N/A   Scattered Clouds
11:53 PM 72.0 °F 60.1 °F 66% 29.81 in 10.0 mi South 21.9 mph 36.8 mph N/A   Clear